This is the latest recevied weather packets stored in our database for station/object SP1BMW-13. If no packets are shown the sender has not sent any weather packets the latest 10 day(s).
| Time | Temp. | Humidity | Pressure | Rain* | Wind** | Luminosity | Snow |
|---|---|---|---|---|---|---|---|
| 1787420943 | 17.78° C | 65% | 1012.3 hPa | 0 mm | 0.89 m/s, 285° | 5 W/m² | - |
| 1787420883 | 17.78° C | 65% | 1012.1 hPa | 0 mm | 0.45 m/s, 255° | 7 W/m² | - |
| 1787420823 | 17.78° C | 65% | 1012.1 hPa | 0 mm | 0.45 m/s, 302° | 8 W/m² | - |
| 1787420763 | 17.78° C | 64% | 1012.1 hPa | 0 mm | 0.89 m/s, 226° | 9 W/m² | - |
| 1787420703 | 17.78° C | 64% | 1012.1 hPa | 0 mm | 0.45 m/s, 283° | 10 W/m² | - |
| 1787420643 | 17.78° C | 64% | 1012.1 hPa | 0 mm | 0.45 m/s, 297° | 10 W/m² | - |
| 1787420583 | 17.78° C | 64% | 1012.1 hPa | 0 mm | 0.89 m/s, 283° | 11 W/m² | - |
| 1787420522 | 17.78° C | 64% | 1012 hPa | 0 mm | 1.34 m/s, 253° | 12 W/m² | - |
| 1787420463 | 17.78° C | 64% | 1012.1 hPa | 0 mm | 0.89 m/s, 93° | 13 W/m² | - |
| 1787420403 | 17.78° C | 63% | 1012.2 hPa | 0 mm | 2.24 m/s, 228° | 14 W/m² | - |
| 1787420343 | 17.78° C | 64% | 1012.1 hPa | 0 mm | 0.89 m/s, 285° | 16 W/m² | - |
| 1787420282 | 17.78° C | 63% | 1011.9 hPa | 0 mm | 1.34 m/s, 233° | 16 W/m² | - |
| 1787420222 | 17.78° C | 63% | 1011.9 hPa | 0 mm | 0.45 m/s, 235° | 17 W/m² | - |
| 1787420163 | 17.78° C | 63% | 1012 hPa | 0 mm | 0.89 m/s, 178° | 17 W/m² | - |
| 1787420102 | 17.78° C | 63% | 1012 hPa | 0 mm | 0.45 m/s, 242° | 17 W/m² | - |
| 1787420043 | 17.78° C | 63% | 1011.9 hPa | 0 mm | 0.45 m/s, 278° | 18 W/m² | - |
| 1787419983 | 17.78° C | 62% | 1011.9 hPa | 0 mm | 0.89 m/s, 244° | 18 W/m² | - |
| 1787419922 | 17.78° C | 62% | 1012 hPa | 0 mm | 0.89 m/s, 100° | 19 W/m² | - |
| 1787419862 | 17.78° C | 62% | 1012.2 hPa | 0 mm | 0.89 m/s, 236° | 20 W/m² | - |
| 1787419803 | 17.78° C | 62% | 1012 hPa | 0 mm | 1.79 m/s, 251° | 20 W/m² | - |
| 1787419742 | 17.78° C | 61% | 1012 hPa | 0 mm | 1.79 m/s, 127° | 21 W/m² | - |
| 1787419683 | 18.33° C | 61% | 1012 hPa | 0 mm | 1.79 m/s, 310° | 22 W/m² | - |
| 1787419622 | 18.33° C | 61% | 1011.9 hPa | 0 mm | 0.45 m/s, 204° | 22 W/m² | - |
| 1787419562 | 18.33° C | 61% | 1012.1 hPa | 0 mm | 0.89 m/s, 148° | 23 W/m² | - |
| 1787419502 | 18.33° C | 61% | 1011.9 hPa | 0 mm | 0.89 m/s, 233° | 24 W/m² | - |
* Rain latest hour (hover to see other rain measurements)
** Current wind speed in m/s (hover to see current wind gust speed)